Regional Weather Roundup
Issued by NWS

Home | Current Version | Previous Version | Graphics & Text | Print | Product List | Glossary On
Versions: 1 2 3 4 5 6 7 8 9 10 11 12 13 14 15 16 17 18 19 20 21 22 23 24 25 26 27 28 29 30 31 32 33 34 35 36 37 38 39 40 41 42 43 44 45 46 47 48 49 50
000
ASUS45 KBOI 231010
RWRID

IDAHO REGIONAL WEATHER ROUNDUP
NATIONAL WEATHER SERVICE BOISE ID
400 AM MDT SAT MAY 23 2015

NOTE: "FAIR" INDICATES FEW OR NO CLOUDS BELOW 12000 FEET
WITH NO SIGNIFICANT WEATHER AND/OR OBSTRUCTIONS TO VISIBILITY

IDZ012-014-231100-
SOUTHWEST IDAHO


CITY           SKY/WX    TMP DP  RH WIND       PRES   REMARKS
BOISE          MOCLDY    55  50  83 N5        29.89R
CALDWELL       PTCLDY    55  45  67 W8        29.90S
MOUNTAIN HOME  CLOUDY    55  49  82 NW6       29.88R
$$

IDZ016-017-231100-
SOUTHCENTRAL IDAHO


CITY           SKY/WX    TMP DP  RH WIND       PRES   REMARKS
BURLEY         PTCLDY    45  43  93 CALM      29.89S
JEROME         PTCLDY    48  45  89 N5        29.91R
TWIN FALLS     PTCLDY    54  46  74 SW10      29.88S
$$

IDZ019>023-231100-
SOUTHEAST IDAHO


CITY           SKY/WX    TMP DP  RH WIND       PRES   REMARKS
IDAHO FALLS    CLOUDY    50  48  93 N5        29.92S
POCATELLO      LGT RAIN  51  51 100 N5        29.92R
REXBURG        CLOUDY    50  47  89 NE3       29.93S
$$

IDZ006-010-011-018-031-032-231100-
CENTRAL IDAHO MOUNTAINS


CITY           SKY/WX    TMP DP  RH WIND       PRES   REMARKS
MCCALL         FOG       44  44 100 CALM      29.94S VSB 1/2
HAILEY         MOCLDY    46  46 100 NW6       29.96S
STANLEY          N/A     41  39  93 CALM      30.01S
SALMON         MOCLDY    46  43  87 S5        29.95R
CHALLIS        CLOUDY    48  40  73 CALM      29.95R
$$

IDZ002-004-006-007-026-231100-
NORTHERN IDAHO


CITY           SKY/WX    TMP DP  RH WIND       PRES   REMARKS
LEWISTON       MOCLDY    58  52  80 SW6       29.93R
LOWELL           N/A     55  52  89 CALM      29.95R
COEUR D`ALENE  MOCLDY    54  45  71 E3        29.93R
MULLAN PASS    MOCLDY    50  31  48 VRB3      30.05R
$$



USA.gov is the U.S. government's official web portal to all federal, state and local government web resources and services.